DW2489 Weather Reports


Display with metric or nautical units.
time (UTC)temp
F
wind
direction
speed
MPH
gust
MPH
rain 1hr
in
rain 24hr
in
rain mn
in
humidity
%
barometer
mb
20260510131222 57 287 3.0 7.0 0.00 0.30 0.00 1010.8
20260510130720 57 259 3.0 6.0 0.00 0.30 0.00 1010.8
20260510130219 56 209 1.0 3.0 0.00 0.31 0.00 1010.8
20260510125717 55 209 0.0 3.0 0.00 0.31 0.00 1010.8
20260510125215 55 209 0.0 4.0 0.00 0.32 0.00 1010.5
20260510124713 55 209 0.0 4.0 0.00 0.32 0.00 1010.5
20260510124210 54 238 0.0 4.0 0.00 0.32 0.00 1010.5
20260510123709 54 238 1.0 4.0 0.00 0.33 0.00 1010.8
20260510123207 54 237 1.0 4.0 0.00 0.33 0.00 1010.5
20260510122705 54 229 2.0 4.0 0.00 0.33 0.00 1010.5
20260510122203 54 265 2.0 4.0 0.00 0.33 0.00 1010.8
20260510121702 53 228 3.0 4.0 0.00 0.33 0.00 1010.5
20260510121129 53 215 0.0 4.0 0.00 0.34 0.00 1010.5
20260510120627 53 215 0.0 3.0 0.00 0.34 0.00 1010.8
20260510120126 53 215 0.0 3.0 0.00 0.34 0.00 1010.5
20260510115522 53 215 1.0 6.0 0.00 0.34 0.00 1010.5
20260510115021 52 214 0.0 6.0 0.00 0.34 0.00 1010.5
20260510114519 52 238 0.0 3.0 0.00 0.34 0.00 1010.5
20260510114019 52 238 0.0 3.0 0.00 0.34 0.00 1010.5
20260510113517 52 238 0.0 3.0 0.00 0.34 0.00 1010.5
20260510113016 52 257 1.0 4.0 0.00 0.34 0.00 1010.5
20260510112513 52 246 1.0 7.0 0.00 0.34 0.00 1010.5
20260510111941 52 156 2.0 7.0 0.00 0.34 0.00 1010.5
20260510111440 52 209 1.0 7.0 0.00 0.34 0.00 1010.5
20260510110939 52 191 0.0 7.0 0.00 0.34 0.00 1010.2
20260510110406 52 191 1.0 7.0 0.00 0.34 0.00 1010.2
20260510105905 52 202 2.0 6.0 0.00 0.34 0.00 1010.2
20260510105403 51 202 1.0 4.0 0.00 0.34 0.00 1010.2
20260510104830 51 202 0.0 2.0 0.00 0.34 0.00 1010.2
20260510104328 51 202 0.0 0.0 0.00 0.34 0.00 1010.2
20260510103824 51 202 0.0 4.0 0.00 0.34 0.00 1009.8
20260510103323 51 202 0.0 4.0 0.00 0.34 0.00 1009.8
20260510102751 51 202 0.0 4.0 0.00 0.34 0.00 1009.8
20260510102249 51 202 0.0 3.0 0.00 0.34 0.00 1009.8
20260510101746 51 202 0.0 3.0 0.00 0.34 0.00 1009.5
20260510101246 51 196 0.0 0.0 0.00 0.34 0.00 1009.5
20260510100745 51 197 0.0 0.0 0.00 0.34 0.00 1009.5
20260510100244 51 197 0.0 0.0 0.00 0.34 0.00 1009.5
20260510095743 51 197 0.0 3.0 0.00 0.34 0.00 1009.5
20260510095211 51 197 0.0 3.0 0.00 0.34 0.00 1009.1
20260510094708 51 197 1.0 3.0 0.00 0.34 0.00 1009.1
20260510094204 50 197 0.0 7.0 0.00 0.34 0.00 1009.1
20260510093701 50 197 1.0 7.0 0.00 0.34 0.00 1008.8
20260510093125 50 211 0.0 0.0 0.00 0.34 0.00 1008.8
20260510092519 50 211 0.0 0.0 0.00 0.34 0.00 1008.8
20260510092018 50 211 0.0 0.0 0.00 0.34 0.00 1008.8
20260510091516 50 211 0.0 0.0 0.00 0.34 0.00 1008.8
20260510090943 50 211 0.0 0.0 0.00 0.34 0.00 1008.8
20260510090442 50 211 0.0 0.0 0.00 0.34 0.00 1008.8
20260510085941 50 211 0.0 0.0 0.00 0.34 0.00 1008.8
20260510085440 50 211 0.0 0.0 0.00 0.34 0.00 1008.5
20260510084939 50 211 0.0 0.0 0.00 0.34 0.00 1008.5
20260510084407 50 211 0.0 0.0 0.00 0.34 0.00 1008.8
20260510083904 51 211 0.0 2.0 0.00 0.34 0.00 1008.8
20260510083402 51 211 0.0 2.0 0.00 0.34 0.00 1008.8
20260510082901 51 179 0.0 2.0 0.00 0.34 0.00 1008.8
20260510082400 51 178 0.0 3.0 0.00 0.34 0.00 1008.8
20260510081858 51 178 0.0 6.0 0.00 0.34 0.00 1008.8
20260510081326 51 178 0.0 6.0 0.00 0.34 0.00 1008.8
20260510080823 51 178 2.0 6.0 0.00 0.34 0.00 1008.8
20260510080320 52 178 2.0 6.0 0.00 0.34 0.00 1008.8
20260510075819 52 178 2.0 6.0 0.00 0.34 0.00 1008.8
20260510075318 52 217 2.0 9.0 0.00 0.34 0.00 1008.5
20260510074744 52 217 1.0 9.0 0.00 0.34 0.00 1008.5
20260510074243 52 156 4.0 9.0 0.00 0.34 0.00 1008.1
20260510073738 52 158 3.0 6.0 0.00 0.34 0.00 1008.5
20260510073237 52 157 2.0 6.0 0.00 0.34 0.00 1008.5
20260510072735 52 155 3.0 7.0 0.00 0.34 0.00 1008.5
20260510072234 52 169 0.0 7.0 0.00 0.34 0.00 1008.5
20260510071732 52 217 1.0 6.0 0.00 0.34 0.00 1008.8
20260510071230 52 217 3.0 4.0 0.00 0.34 0.00 1009.1
20260510070728 52 217 2.0 4.0 0.00 0.34 0.00 1009.5
20260510070226 52 217 0.0 3.0 0.00 0.34 0.00 1009.1
20260510065725 52 217 1.0 3.0 0.00 0.34 0.00 1009.5
20260510065224 52 217 1.0 3.0 0.00 0.34 0.00 1009.5
20260510064650 52 217 0.0 3.0 0.00 0.34 0.00 1009.5
20260510064149 52 219 0.0 3.0 0.00 0.34 0.00 1009.5
20260510063647 52 260 1.0 3.0 0.00 0.34 0.00 1009.5
20260510063145 52 263 0.0 4.0 0.00 0.34 0.00 1009.5
20260510062644 52 263 0.0 4.0 0.00 0.34 0.00 1009.5
20260510062143 52 263 0.0 4.0 0.00 0.34 0.00 1009.5
20260510061640 52 265 1.0 4.0 0.00 0.34 0.00 1009.5
20260510061137 52 216 2.0 4.0 0.00 0.34 0.00 1009.1
20260510060634 52 216 0.0 6.0 0.00 0.34 0.00 1009.1
20260510060133 52 191 2.0 6.0 0.00 0.34 0.00 1009.1
20260510055601 52 213 2.0 6.0 0.00 0.34 0.00 1009.1
20260510055059 52 197 2.0 6.0 0.00 0.34 0.00 1009.1
20260510054557 52 273 1.0 4.0 0.00 0.34 0.00 1009.1
20260510054054 52 274 1.0 6.0 0.00 0.34 0.00 1009.1
20260510053552 52 245 2.0 6.0 0.00 0.34 0.00 1009.1
20260510053050 53 193 1.0 4.0 0.00 0.34 0.00 1009.1
20260510052549 53 193 2.0 4.0 0.00 0.34 0.00 1009.1
20260510052046 52 193 1.0 7.0 0.00 0.34 0.00 1008.8
20260510051545 52 176 3.0 7.0 0.00 0.34 0.00 1008.8
20260510051012 52 163 0.0 7.0 0.00 0.34 0.00 1008.8
20260510050408 52 163 1.0 7.0 0.00 0.34 0.00 1008.8
20260510045907 52 173 3.0 7.0 0.00 0.34 0.00 1008.8
20260510045405 52 174 2.0 6.0 0.00 0.34 0.00 1008.8
20260510044904 52 202 1.0 6.0 0.00 0.34 0.00 1008.8
20260510044403 52 188 2.0 6.0 0.00 0.34 0.00 1008.8
20260510043901 52 193 2.0 7.0 0.00 0.34 0.00 1008.8
20260510043327 52 186 0.0 7.0 0.00 0.34 0.00 1008.8
20260510042826 52 190 3.0 7.0 0.00 0.34 0.00 1008.8
20260510042324 52 179 0.0 4.0 0.00 0.34 0.00 1008.8
20260510041823 52 179 2.0 4.0 0.00 0.34 0.00 1008.8
20260510041322 52 179 1.0 7.0 0.00 0.34 0.00 1008.8
20260510040820 52 179 2.0 7.0 0.00 0.34 0.00 1008.8
20260510040319 53 142 2.0 4.0 0.00 0.34 0.00 1008.8
20260510035745 53 142 1.0 9.0 0.00 0.34 0.34 1008.8
20260510035244 53 142 1.0 9.0 0.00 0.34 0.34 1008.8
20260510034743 52 173 3.0 9.0 0.00 0.34 0.34 1008.8
20260510034242 52 186 0.0 7.0 0.00 0.34 0.34 1008.8
20260510033741 53 184 3.0 7.0 0.00 0.34 0.34 1008.8
20260510033240 53 177 0.0 7.0 0.00 0.34 0.34 1008.8
20260510032707 52 175 2.0 7.0 0.00 0.34 0.34 1008.8
20260510032205 52 176 0.0 7.0 0.00 0.34 0.34 1008.5
20260510031704 52 177 2.0 7.0 0.00 0.34 0.34 1008.8
20260510031203 52 177 2.0 7.0 0.00 0.34 0.34 1008.8
20260510030702 52 177 2.0 7.0 0.00 0.34 0.34 1008.8
20260510030201 52 177 3.0 6.0 0.00 0.34 0.34 1008.8
20260510025659 52 177 0.0 7.0 0.00 0.34 0.34 1009.1
20260510025126 52 171 3.0 7.0 0.00 0.34 0.34 1008.8
20260510024625 52 197 0.0 4.0 0.00 0.34 0.34 1009.1
20260510024123 52 185 0.0 3.0 0.00 0.34 0.34 1009.1
20260510023623 52 186 0.0 3.0 0.00 0.34 0.34 1009.1
20260510023121 52 186 0.0 4.0 0.00 0.34 0.34 1009.1
20260510022617 53 186 0.0 4.0 0.00 0.34 0.34 1009.1
20260510022114 53 186 0.0 4.0 0.00 0.34 0.34 1008.8
20260510021612 53 186 0.0 3.0 0.00 0.34 0.34 1008.8
20260510021109 53 186 0.0 4.0 0.00 0.34 0.34 1008.8
20260510020607 53 186 1.0 4.0 0.00 0.34 0.34 1008.8
20260510020034 53 186 1.0 3.0 0.00 0.34 0.34 1008.8
20260510015533 53 186 0.0 3.0 0.00 0.34 0.34 1009.1
20260510015032 53 186 0.0 4.0 0.00 0.34 0.34 1009.1
20260510014531 53 186 2.0 6.0 0.00 0.34 0.34 1009.1
20260510013959 53 186 0.0 7.0 0.00 0.34 0.34 1008.8
20260510013458 53 186 2.0 7.0 0.00 0.34 0.34 1008.8
20260510012956 53 186 1.0 7.0 0.00 0.34 0.34 1008.8
20260510012454 53 190 2.0 6.0 0.00 0.34 0.34 1009.1
20260510011953 53 215 0.0 3.0 0.00 0.34 0.34 1009.1
20260510011451 53 215 0.0 2.0 0.00 0.34 0.34 1009.1
20260510010950 53 215 0.0 3.0 0.00 0.34 0.34 1009.1
20260510010448 53 215 0.0 3.0 0.00 0.34 0.34 1009.1
20260510005742 53 215 0.0 3.0 0.00 0.34 0.34 1009.1
20260510005239 53 215 0.0 0.0 0.00 0.34 0.34 1009.1
20260510004738 53 215 0.0 0.0 0.00 0.34 0.34 1009.1
20260510004205 53 215 0.0 0.0 0.00 0.34 0.34 1009.1
20260510003704 53 215 0.0 0.0 0.00 0.34 0.34 1008.8
20260510003203 53 215 0.0 2.0 0.00 0.34 0.34 1008.8
20260510002702 53 205 0.0 2.0 0.00 0.34 0.34 1008.8
20260510002201 53 209 0.0 0.0 0.00 0.34 0.34 1008.8
20260510001658 53 209 0.0 0.0 0.00 0.34 0.34 1008.5
20260510001157 53 209 0.0 0.0 0.00 0.34 0.34 1008.5
20260510000656 53 209 0.0 0.0 0.00 0.34 0.34 1008.5
20260510000154 53 209 0.0 0.0 0.00 0.34 0.34 1008.1
20260509235652 54 209 0.0 4.0 0.00 0.34 0.34 1008.1
20260509235151 54 209 0.0 4.0 0.00 0.34 0.34 1008.1
20260509234650 54 209 1.0 6.0 0.00 0.34 0.34 1008.1
20260509234148 54 209 0.0 6.0 0.00 0.34 0.34 1008.1
20260509233646 54 90 0.0 0.0 0.00 0.34 0.34 1008.1
20260509233145 54 90 0.0 0.0 0.00 0.34 0.34 1008.1
20260509232644 54 90 0.0 0.0 0.00 0.34 0.34 1008.1
20260509232142 54 90 0.0 2.0 0.00 0.34 0.34 1008.1
20260509231610 54 90 0.0 2.0 0.00 0.34 0.34 1007.8
20260509231109 53 90 0.0 0.0 0.00 0.34 0.34 1007.8
20260509230607 53 90 0.0 3.0 0.00 0.34 0.34 1008.1
20260509230106 53 90 0.0 3.0 0.00 0.34 0.34 1008.1
20260509225605 53 90 0.0 0.0 0.00 0.34 0.34 1008.1
20260509225031 53 90 0.0 0.0 0.00 0.34 0.34 1008.1
20260509224530 53 90 0.0 0.0 0.00 0.34 0.34 1008.1
20260509224029 53 90 0.0 3.0 0.00 0.34 0.34 1008.1
20260509223527 53 90 0.0 3.0 0.00 0.34 0.34 1008.1
20260509222955 53 90 0.0 3.0 0.00 0.34 0.34 1008.1
20260509222452 53 90 0.0 4.0 0.00 0.34 0.34 1008.1
20260509221950 53 90 0.0 4.0 0.00 0.34 0.34 1008.1
20260509221449 53 90 0.0 4.0 0.00 0.34 0.34 1008.1
20260509220916 52 90 1.0 6.0 0.00 0.34 0.34 1008.1
20260509220344 52 90 1.0 6.0 0.00 0.34 0.34 1008.1
20260509215842 52 43 2.0 6.0 0.00 0.34 0.34 1008.1
20260509215342 52 33 0.0 0.0 0.00 0.34 0.34 1008.1
20260509214809 52 115 0.0 0.0 0.00 0.34 0.34 1008.1
20260509214308 52 115 0.0 0.0 0.00 0.34 0.34 1008.1
20260509213736 52 115 0.0 0.0 0.00 0.34 0.34 1008.5
20260509213235 52 115 0.0 0.0 0.00 0.34 0.34 1008.5
20260509212734 52 115 0.0 0.0 0.00 0.34 0.34 1008.5
20260509212232 52 115 0.0 3.0 0.00 0.34 0.34 1008.5
20260509211730 52 115 0.0 4.0 0.00 0.34 0.34 1008.5
20260509211229 52 115 0.0 4.0 0.00 0.34 0.34 1008.5
20260509210727 52 115 1.0 4.0 0.00 0.34 0.34 1008.5
20260509210226 52 115 0.0 0.0 0.00 0.34 0.34 1008.5
20260509205724 51 115 0.0 0.0 0.00 0.34 0.34 1008.8
20260509205222 51 115 0.0 0.0 0.00 0.34 0.34 1008.8
20260509204721 51 114 0.0 2.0 0.00 0.34 0.34 1008.8
20260509204221 51 115 0.0 2.0 0.00 0.34 0.34 1008.8
20260509203718 51 115 0.0 2.0 0.01 0.34 0.34 1008.8
20260509203145 51 115 0.0 6.0 0.01 0.34 0.34 1008.8
20260509202644 51 111 0.0 6.0 0.01 0.34 0.34 1009.1
20260509202141 51 358 0.0 3.0 0.01 0.34 0.34 1009.1
20260509201640 51 358 0.0 4.0 0.01 0.34 0.34 1009.1
20260509201139 51 358 1.0 4.0 0.01 0.34 0.34 1009.1
20260509200607 51 358 0.0 0.0 0.01 0.34 0.34 1009.1
20260509200105 51 358 0.0 3.0 0.01 0.34 0.34 1009.1
20260509195604 51 358 0.0 3.0 0.01 0.34 0.34 1009.5
20260509195104 51 358 1.0 3.0 0.01 0.34 0.34 1009.5
20260509194531 51 358 0.0 3.0 0.01 0.34 0.34 1009.5
20260509194030 51 358 0.0 4.0 0.01 0.34 0.34 1009.5
20260509193427 51 358 2.0 4.0 0.00 0.33 0.33 1009.5
20260509192854 50 358 0.0 4.0 0.00 0.33 0.33 1009.5
20260509192353 50 358 0.0 4.0 0.00 0.33 0.33 1009.5
20260509191852 50 358 1.0 4.0 0.01 0.33 0.33 1009.5
20260509191351 50 358 1.0 4.0 0.01 0.33 0.33 1009.5
20260509190818 50 358 0.0 3.0 0.02 0.33 0.33 1009.5
20260509190317 50 358 0.0 3.0 0.03 0.33 0.33 1009.8
20260509185814 50 358 1.0 4.0 0.03 0.33 0.33 1009.8
20260509185311 50 358 0.0 4.0 0.04 0.33 0.33 1009.8
20260509184810 50 358 2.0 4.0 0.05 0.33 0.33 1009.8
20260509184308 50 358 0.0 4.0 0.05 0.33 0.33 1009.8
20260509183805 50 358 0.0 4.0 0.06 0.33 0.33 1009.8
20260509183304 50 358 1.0 4.0 0.06 0.33 0.33 1009.8
20260509182803 50 358 0.0 3.0 0.07 0.33 0.33 1009.8
20260509182306 50 358 0.0 3.0 0.06 0.32 0.32 1009.8
20260509181801 50 357 1.0 3.0 0.07 0.32 0.32 1010.2
20260509181300 49 357 0.0 3.0 0.07 0.32 0.32 1009.8
20260509180758 49 357 1.0 3.0 0.06 0.31 0.31 1010.2
20260509180256 49 357 0.0 3.0 0.06 0.30 0.30 1010.2
20260509175653 49 357 0.0 3.0 0.06 0.30 0.30 1010.2
20260509175151 49 357 0.0 3.0 0.05 0.29 0.29 1010.2
20260509174650 49 357 0.0 4.0 0.04 0.28 0.28 1010.2
20260509174148 49 357 0.0 4.0 0.04 0.28 0.28 1010.2
20260509173648 49 357 1.0 3.0 0.04 0.27 0.27 1010.5
20260509173147 49 357 0.0 3.0 0.03 0.26 0.26 1010.2
20260509172645 49 357 0.0 3.0 0.03 0.26 0.26 1010.5
20260509172144 49 357 0.0 0.0 0.03 0.26 0.26 1010.2
20260509171642 48 357 0.0 3.0 0.03 0.25 0.25 1010.5
20260509171139 48 357 0.0 3.0 0.03 0.25 0.25 1010.5
20260509170638 48 357 0.0 2.0 0.03 0.25 0.25 1010.5
20260509170136 48 0 0.0 2.0 0.02 0.24 0.24 1010.5
20260509165634 48 16 0.0 3.0 0.03 0.24 0.24 1010.5
20260509165133 48 14 0.0 3.0 0.03 0.24 0.24 1010.5
20260509164632 47 15 2.0 3.0 0.04 0.24 0.24 1010.5
20260509164130 47 15 0.0 4.0 0.04 0.24 0.24 1010.8
20260509163628 47 15 0.0 4.0 0.03 0.23 0.23 1010.8
20260509163128 47 14 0.0 4.0 0.04 0.23 0.23 1010.8
20260509162626 47 15 1.0 4.0 0.04 0.23 0.23 1010.8
20260509162054 47 14 0.0 4.0 0.04 0.22 0.22 1011.2
20260509161551 46 15 0.0 4.0 0.04 0.22 0.22 1011.2
20260509161019 46 15 1.0 3.0 0.04 0.22 0.22 1011.2
20260509160518 46 14 0.0 2.0 0.05 0.22 0.22 1011.2
20260509160016 46 14 0.0 3.0 0.06 0.22 0.22 1011.5
20260509155413 46 14 0.0 0.0 0.06 0.21 0.21 1011.5
20260509154840 45 14 0.0 0.0 0.06 0.20 0.20 1011.9
20260509154339 45 15 0.0 0.0 0.06 0.20 0.20 1011.9
20260509153838 45 14 0.0 0.0 0.07 0.20 0.20 1011.9
20260509153337 45 14 0.0 0.0 0.07 0.19 0.19 1011.9
20260509152803 45 14 0.0 4.0 0.08 0.19 0.19 1011.9
20260509152300 45 15 0.0 4.0 0.09 0.19 0.19 1011.9
20260509151758 45 14 2.0 4.0 0.08 0.18 0.18 1011.9
20260509151257 45 14 0.0 2.0 0.09 0.18 0.18 1011.9
20260509150756 45 14 0.0 0.0 0.10 0.18 0.18 1011.9
20260509150222 45 17 0.0 0.0 0.09 0.17 0.17 1011.9
20260509145721 45 333 0.0 0.0 0.09 0.16 0.16 1011.9
20260509145220 45 333 0.0 0.0 0.08 0.15 0.15 1011.9
20260509144719 45 333 0.0 0.0 0.08 0.14 0.14 1011.9
20260509144218 45 333 0.0 0.0 0.07 0.13 0.13 1011.9
20260509143717 45 333 0.0 0.0 0.07 0.13 0.13 1011.9
20260509143214 45 333 0.0 0.0 0.06 0.12 0.12 1011.9
20260509142713 45 333 0.0 0.0 0.06 0.11 0.11 1011.9
20260509142210 45 333 0.0 0.0 0.05 0.10 0.10 1011.9
20260509141709 45 333 0.0 2.0 0.06 0.10 0.10 1011.9
20260509141206 45 333 0.0 3.0 0.05 0.09 0.09 1011.9
20260509140633 45 333 0.0 3.0 0.04 0.08 0.08 1011.9
20260509140132 45 333 0.0 3.0 0.05 0.08 0.08 1011.9
20260509135631 45 333 1.0 3.0 0.04 0.07 0.07 1011.9
20260509135130 45 333 0.0 3.0 0.05 0.07 0.07 1011.9
20260509134627 44 333 0.0 3.0 0.04 0.06 0.06 1011.9
20260509134126 44 333 0.0 0.0 0.04 0.06 0.06 1011.9
20260509133553 44 333 0.0 0.0 0.05 0.06 0.06 1011.9
20260509133052 44 333 0.0 0.0 0.05 0.06 0.06 1011.9
20260509132551 44 333 0.0 0.0 0.04 0.05 0.05 1011.9
20260509132049 44 333 0.0 0.0 0.04 0.05 0.05 1011.9
20260509131516 44 333 0.0 0.0 0.04 0.04 0.04 1011.9